Content
SEND FEEDBACK

Daily
Averages
Monthly
Summary
United States of America

NIXON, NEVADA


Home > North America > United States > Nevada
Elevation: 4133 feet     Latitude: 39 57N     Longitude: 119 37W

WEATHER
 
SELECT A DAY
Number of Records: 74,036;   Date Range: 9/21/11 - 11/19/14
 
SHARE

PRINT THIS DATA

[ ← Previous Day ]
WEATHER ALMANAC - JANUARY 31, 2013
[ Next Day → ]
[ °C ]   °F
Weather ElementAverageHighLow
Temperature35.4 °F53.6 °F (3:10 pm)23 °F (6:30 am)
Dewpoint27.5 °F33.8 °F (4:35 pm)21.2 °F (6:30 am)
Humidity76.1 %93 % (12:25 am)35 % (3:55 pm)
Barometer30.32 in30.41 in (12:25 am)30.25 in (2:15 pm)
Wind Speed2 mph6.9 mph (4:15 pm)
Weather ElementAverage
Visibility10 mi
Wind DirectionE (91.3 °)

Weather ElementTotal
Precipitation---
Heating Degree Days26.7 (Base 65)
Averaged from 69 records on January 31, 2013
WEATHER CONDITIONS BREAKOUT
WIND DIRECTION BREAKOUT
WEATHER BY HOUR - JANUARY 31, 2013
[ °C ]   °F
Local TimeTemperatureDewpointHumidityBarometerVisibilityWind DirectionWind SpeedGust SpeedPrecipitationEventsConditions
12:25 AM28.4 °F26.6 °F93 %30.41 in10.0 miCalmClear
12:45 AM28.4 °F26.6 °F93 %30.41 in10.0 miCalmClear
1:05 AM28.4 °F26.6 °F93 %30.41 in10.0 miNW (320°)3.5 mphClear
1:25 AM26.6 °F24.8 °F93 %30.40 in10.0 miNNW (340°)4.6 mphClear
1:45 AM28.4 °F24.8 °F86 %30.40 in10.0 miNorth (360°)3.5 mphClear
2:05 AM28.4 °F26.6 °F93 %30.40 in10.0 miCalmClear
2:25 AM26.6 °F24.8 °F93 %30.40 in10.0 miCalmClear
2:45 AM26.6 °F24.8 °F93 %30.39 in10.0 miCalmClear
3:05 AM24.8 °F23.0 °F93 %30.39 in10.0 miCalmClear
3:25 AM26.6 °F24.8 °F93 %30.38 in10.0 miCalmClear
3:45 AM26.6 °F24.8 °F93 %30.38 in10.0 miCalmClear
4:10 AM26.6 °F24.8 °F93 %30.37 in10.0 miCalmClear
4:35 AM26.6 °F23.0 °F86 %30.37 in10.0 miWNW (300°)3.5 mphClear
4:45 AM24.8 °F23.0 °F93 %30.37 in10.0 miCalmClear
5:05 AM24.8 °F23.0 °F93 %30.37 in10.0 miCalmClear
5:45 AM24.8 °F23.0 °F93 %30.36 in10.0 miCalmClear
6:10 AM24.8 °F23.0 °F93 %30.36 in10.0 miCalmClear
6:30 AM23.0 °F21.2 °F93 %30.36 in10.0 miCalmClear
6:50 AM23.0 °F21.2 °F93 %30.36 in10.0 miCalmClear
7:05 AM24.8 °F23.0 °F93 %30.36 in10.0 miCalmClear
7:25 AM24.8 °F23.0 °F93 %30.36 in10.0 miCalmClear
7:45 AM24.8 °F23.0 °F93 %30.37 in10.0 miCalmClear
8:05 AM26.6 °F24.8 °F93 %30.37 in10.0 miNW (310°)3.5 mphClear
8:30 AM28.4 °F26.6 °F93 %30.37 in10.0 miCalmClear
8:55 AM32.0 °F28.4 °F87 %30.37 in10.0 miCalmClear
9:15 AM33.8 °F28.4 °F81 %30.37 in10.0 miCalmClear
9:35 AM35.6 °F30.2 °F81 %30.37 in10.0 miCalmClear
9:55 AM37.4 °F28.4 °F70 %30.37 in10.0 miCalmClear
10:15 AM37.4 °F28.4 °F70 %30.37 in10.0 miCalmClear
10:35 AM39.2 °F28.4 °F65 %30.36 in10.0 miSW (220°)3.5 mphClear
10:55 AM41.0 °F28.4 °F61 %30.36 in10.0 miSouth (180°)3.5 mphClear
11:15 AM41.0 °F30.2 °F65 %30.35 in10.0 miSW (220°)3.5 mphClear
11:35 AM42.8 °F30.2 °F61 %30.34 in10.0 miSE (140°)3.5 mphClear
11:55 AM44.6 °F30.2 °F57 %30.33 in10.0 miCalmClear
12:15 PM46.4 °F28.4 °F50 %30.32 in10.0 miSouth (180°)3.5 mphClear
12:35 PM46.4 °F30.2 °F53 %30.31 in10.0 miSW (230°)3.5 mphClear
12:55 PM46.4 °F28.4 °F50 %30.29 in10.0 miSW (220°)3.5 mphClear
1:15 PM48.2 °F28.4 °F46 %30.28 in10.0 miCalmClear
1:30 PM50.0 °F28.4 °F43 %30.27 in10.0 miSSE (150°)4.6 mphClear
1:55 PM50.0 °F28.4 °F43 %30.26 in10.0 miEast (80°)3.5 mphClear
2:15 PM50.0 °F28.4 °F43 %30.25 in10.0 miEast (80°)3.5 mphClear
2:35 PM50.0 °F28.4 °F43 %30.25 in10.0 miCalmClear
2:50 PM51.8 °F28.4 °F41 %30.25 in10.0 miCalmClear
3:10 PM53.6 °F28.4 °F38 %30.25 in10.0 miCalmClear
3:35 PM53.6 °F28.4 °F38 %30.25 in10.0 miCalmClear
3:55 PM53.6 °F26.6 °F35 %30.25 in10.0 miCalmClear
4:15 PM51.8 °F32.0 °F47 %30.25 in10.0 miEast (100°)6.9 mphClear
4:35 PM48.2 °F33.8 °F58 %30.25 in10.0 miEast (100°)6.9 mphClear
4:55 PM46.4 °F32.0 °F57 %30.26 in10.0 miSE (130°)6.9 mphClear
5:15 PM44.6 °F32.0 °F61 %30.26 in10.0 miCalmClear
5:35 PM41.0 °F32.0 °F70 %30.26 in10.0 miSSE (160°)4.6 mphClear
5:50 PM41.0 °F32.0 °F70 %30.27 in10.0 miCalmClear
6:15 PM39.2 °F32.0 °F75 %30.27 in10.0 miNNW (330°)4.6 mphClear
6:35 PM35.6 °F30.2 °F81 %30.27 in10.0 miNNE (20°)4.6 mphClear
6:55 PM35.6 °F30.2 °F81 %30.28 in10.0 miNNE (20°)3.5 mphClear
7:15 PM37.4 °F32.0 °F81 %30.28 in10.0 miENE (60°)3.5 mphClear
7:35 PM35.6 °F30.2 °F81 %30.28 in10.0 miNE (40°)4.6 mphClear
7:45 PM33.8 °F28.4 °F81 %30.28 in10.0 miCalmClear
8:10 PM32.0 °F28.4 °F87 %30.29 in10.0 miNNW (330°)5.8 mphClear
8:30 PM32.0 °F28.4 °F87 %30.29 in10.0 miNW (310°)4.6 mphClear
8:45 PM32.0 °F28.4 °F87 %30.29 in10.0 miNNW (340°)4.6 mphClear
9:05 PM32.0 °F28.4 °F87 %30.29 in10.0 miNNW (340°)5.8 mphClear
9:35 PM32.0 °F28.4 °F87 %30.29 in10.0 miNorth (10°)4.6 mphClear
10:10 PM32.0 °F28.4 °F87 %30.29 in10.0 miCalmClear
10:25 PM32.0 °F28.4 °F87 %30.29 in10.0 miCalmClear
10:45 PM28.4 °F26.6 °F93 %30.29 in10.0 miNW (320°)4.6 mphClear
11:05 PM28.4 °F26.6 °F93 %30.29 in10.0 miNorth (360°)6.9 mphClear
11:25 PM30.2 °F26.6 °F86 %30.30 in10.0 miCalmClear
11:45 PM30.2 °F26.6 °F86 %30.29 in10.0 miCalmClear
Hourly data recorded from KRTS, located miles away from Nixon, Nevada







STORIES FROM OUR PARTNERS